This is the latest recevied weather packets stored in our database for station/object HB9FHL-13. If no packets are shown the sender has not sent any weather packets the latest 10 day(s).
| Time | Temp. | Humidity | Pressure | Rain* | Wind** | Luminosity | Snow |
|---|---|---|---|---|---|---|---|
| 1788585170 | 20° C | - | 1025 hPa | 0 mm | - | - | - |
| 1788584870 | 20.56° C | - | 1024.5 hPa | 0 mm | - | - | - |
| 1788584570 | 20° C | - | 1023.4 hPa | 0 mm | - | - | - |
| 1788584309 | 20° C | - | 1024.3 hPa | 0 mm | - | - | - |
| 1788584269 | 20° C | - | 1024.3 hPa | 0 mm | - | - | - |
| 1788583969 | 20° C | - | 1025.7 hPa | 0 mm | - | - | - |
| 1788583368 | 20° C | - | 1022 hPa | 0 mm | - | - | - |
| 1788583101 | 20.56° C | - | 1025.3 hPa | 0 mm | - | - | - |
| 1788583067 | 20.56° C | - | 1025.3 hPa | 0 mm | - | - | - |
| 1788582800 | 20.56° C | - | 1024.3 hPa | 0 mm | - | - | - |
| 1788582767 | 20.56° C | - | 1024.3 hPa | 0 mm | - | - | - |
| 1788582465 | 21.11° C | - | 1021.6 hPa | 0 mm | - | - | - |
| 1788582165 | 20.56° C | - | 1023.3 hPa | 0 mm | - | - | - |
| 1788581864 | 20.56° C | - | 1017.6 hPa | 0 mm | - | - | - |
| 1788581564 | 21.11° C | - | 1025.2 hPa | 0 mm | - | - | - |
| 1788581263 | 20.56° C | - | 1023.1 hPa | 0 mm | - | - | - |
| 1788580963 | 20.56° C | - | 1022.7 hPa | 0 mm | - | - | - |
| 1788580662 | 20.56° C | - | 1022.2 hPa | 0 mm | - | - | - |
| 1788580362 | 20.56° C | - | 1023.2 hPa | 0 mm | - | - | - |
| 1788580061 | 21.67° C | - | 1022.6 hPa | 0 mm | - | - | - |
| 1788579761 | 21.67° C | - | 1022.2 hPa | 0 mm | - | - | - |
| 1788579460 | 21.11° C | - | 1024.1 hPa | 0 mm | - | - | - |
| 1788579160 | 21.67° C | - | 1022.8 hPa | 0 mm | - | - | - |
| 1788578859 | 21.11° C | - | 1023.7 hPa | 0 mm | - | - | - |
| 1788578559 | 21.67° C | - | 1031 hPa | 0 mm | - | - | - |
* Rain since midnight (hover to see other rain measurements)
** Current wind speed in m/s (hover to see current wind gust speed)